TimeEST,TemperatureF,Dew PointF,Humidity,Sea Level PressureIn,VisibilityMPH,Wind Direction,Wind SpeedMPH,Gust SpeedMPH,PrecipitationIn,Events,Conditions,WindDirDegrees,DateUTC
12:54 AM,35.1,30.9,85,30.59,10.0,Calm,Calm,-,N/A,,Mostly Cloudy,0,2012-11-18 05:54:00
1:54 AM,36.0,33.1,89,30.60,10.0,Calm,Calm,-,N/A,,Mostly Cloudy,0,2012-11-18 06:54:00
2:54 AM,36.0,33.1,89,30.59,10.0,Calm,Calm,-,N/A,,Mostly Cloudy,0,2012-11-18 07:54:00
3:54 AM,37.0,34.0,89,30.58,9.0,Calm,Calm,-,N/A,,Scattered Clouds,0,2012-11-18 08:54:00
4:54 AM,35.1,33.1,92,30.60,9.0,Calm,Calm,-,N/A,,Scattered Clouds,0,2012-11-18 09:54:00
5:54 AM,36.0,33.1,89,30.61,9.0,NNE,3.5,-,N/A,,Scattered Clouds,20,2012-11-18 10:54:00
6:54 AM,37.9,33.1,83,30.60,9.0,NNE,4.6,-,N/A,,Scattered Clouds,20,2012-11-18 11:54:00
7:54 AM,39.0,33.1,79,30.62,7.0,Variable,3.5,-,N/A,,Scattered Clouds,0,2012-11-18 12:54:00
8:54 AM,43.0,34.0,71,30.62,8.0,NE,6.9,-,N/A,,Mostly Cloudy,40,2012-11-18 13:54:00
9:54 AM,46.0,35.1,66,30.61,9.0,NE,10.4,-,N/A,,Mostly Cloudy,40,2012-11-18 14:54:00
10:54 AM,48.9,36.0,61,30.61,10.0,ENE,12.7,-,N/A,,Overcast,60,2012-11-18 15:54:00
11:54 AM,50.0,37.0,61,30.58,10.0,ENE,11.5,-,N/A,,Mostly Cloudy,60,2012-11-18 16:54:00
12:54 PM,50.0,37.0,61,30.57,10.0,East,12.7,-,N/A,,Mostly Cloudy,80,2012-11-18 17:54:00
1:54 PM,51.1,37.0,59,30.55,10.0,ENE,12.7,-,N/A,,Mostly Cloudy,70,2012-11-18 18:54:00
2:54 PM,51.1,37.0,59,30.54,10.0,ENE,11.5,-,N/A,,Mostly Cloudy,60,2012-11-18 19:54:00
3:54 PM,50.0,37.9,63,30.55,10.0,NE,10.4,-,N/A,,Overcast,50,2012-11-18 20:54:00
4:54 PM,48.9,37.9,66,30.53,10.0,NE,9.2,-,N/A,,Mostly Cloudy,50,2012-11-18 21:54:00
5:54 PM,48.9,37.9,66,30.54,10.0,NE,10.4,-,N/A,,Overcast,50,2012-11-18 22:54:00
6:54 PM,48.9,37.9,66,30.55,10.0,NE,13.8,-,N/A,,Overcast,50,2012-11-18 23:54:00
7:54 PM,48.0,37.9,68,30.56,10.0,NE,11.5,-,N/A,,Overcast,50,2012-11-19 00:54:00
8:54 PM,46.4,37.4,71,30.54,10.0,NE,10.4,-,N/A,,Overcast,50,2012-11-19 01:54:00
9:54 PM,46.9,37.0,68,30.53,10.0,NNE,9.2,19.6,N/A,,Mostly Cloudy,30,2012-11-19 02:54:00
10:54 PM,46.0,37.0,71,30.52,10.0,NNE,8.1,-,N/A,,Mostly Cloudy,30,2012-11-19 03:54:00
11:54 PM,46.4,37.4,71,30.51,10.0,North,4.6,-,N/A,,Mostly Cloudy,10,2012-11-19 04:54:00